TimeEDT,TemperatureF,Dew PointF,Humidity,Sea Level PressureIn,VisibilityMPH,Wind Direction,Wind SpeedMPH,Gust SpeedMPH,PrecipitationIn,Events,Conditions,WindDirDegrees,DateUTC
12:51 AM,32.0,28.0,85,30.04,10.0,Calm,Calm,-,N/A,,Overcast,0,2013-03-29 04:51:00
1:51 AM,33.1,28.0,82,30.04,10.0,Calm,Calm,-,N/A,,Overcast,0,2013-03-29 05:51:00
2:51 AM,32.0,28.0,85,30.03,10.0,Calm,Calm,-,N/A,,Overcast,0,2013-03-29 06:51:00
3:51 AM,30.0,27.0,88,30.02,10.0,Calm,Calm,-,N/A,,Mostly Cloudy,0,2013-03-29 07:51:00
4:51 AM,30.0,27.0,88,30.02,10.0,East,3.5,-,N/A,,Overcast,80,2013-03-29 08:51:00
5:51 AM,30.9,28.0,89,30.02,10.0,Calm,Calm,-,N/A,,Overcast,0,2013-03-29 09:51:00
6:51 AM,36.0,30.0,79,30.04,10.0,West,4.6,-,N/A,,Overcast,280,2013-03-29 10:51:00
7:51 AM,41.0,32.0,70,30.04,10.0,NNW,4.6,-,N/A,,Overcast,330,2013-03-29 11:51:00
8:51 AM,42.1,32.0,67,30.05,10.0,WNW,6.9,-,N/A,,Overcast,300,2013-03-29 12:51:00
9:51 AM,46.0,33.1,61,30.04,10.0,NW,9.2,-,N/A,,Mostly Cloudy,310,2013-03-29 13:51:00
10:51 AM,50.0,33.1,52,30.04,10.0,WNW,11.5,19.6,N/A,,Scattered Clouds,300,2013-03-29 14:51:00
11:51 AM,52.0,30.9,45,30.03,10.0,NNW,11.5,-,N/A,,Partly Cloudy,330,2013-03-29 15:51:00
12:51 PM,54.0,30.9,41,30.02,10.0,NNW,12.7,-,N/A,,Scattered Clouds,340,2013-03-29 16:51:00
1:51 PM,51.1,28.9,43,30.01,10.0,NNW,12.7,20.7,N/A,,Mostly Cloudy,330,2013-03-29 17:51:00
2:51 PM,52.0,28.0,40,29.99,10.0,NNW,10.4,-,N/A,,Mostly Cloudy,340,2013-03-29 18:51:00
3:51 PM,50.0,28.9,44,29.99,10.0,WNW,11.5,20.7,N/A,,Overcast,300,2013-03-29 19:51:00
4:51 PM,50.0,30.0,46,29.99,10.0,NNW,5.8,-,N/A,,Overcast,330,2013-03-29 20:51:00
5:51 PM,46.9,30.9,54,30.01,10.0,NW,8.1,-,N/A,,Overcast,320,2013-03-29 21:51:00
6:51 PM,45.0,30.9,58,30.01,10.0,NW,5.8,-,N/A,,Overcast,310,2013-03-29 22:51:00
7:51 PM,44.1,30.9,60,30.03,10.0,Calm,Calm,-,N/A,,Overcast,0,2013-03-29 23:51:00
8:51 PM,43.0,30.0,60,30.04,10.0,WNW,8.1,-,N/A,,Overcast,290,2013-03-30 00:51:00
9:51 PM,42.1,30.0,62,30.05,10.0,NW,4.6,-,N/A,,Overcast,310,2013-03-30 01:51:00
10:51 PM,37.0,28.9,73,30.05,10.0,NW,5.8,-,N/A,,Clear,320,2013-03-30 02:51:00
11:51 PM,37.0,28.9,73,30.05,10.0,Calm,Calm,-,N/A,,Mostly Cloudy,0,2013-03-30 03:51:00